HIMAWARI-9

Last updated on Sept. 24, 2020, 5:42 a.m. UTC

1 41836U 16064A   20267.81642260 -.00000295  00000-0  00000+0 0  9991
2 41836   0.0172 260.8700 0000531 276.5990 260.3274  1.00272142 14327
UTC
Height (km)
Latitude
Longitude
Inclination
Orbital Period
UTC large
Height (km)
Speed (km/s)
/
Latitude / Longitude
Inclination (degrees)
Orbital Period (minutes)
Azimuth
Elevation
Range (km)
Doppler Factor
iOS Compass Heading
iOS Angle

Next 30 passes for location: Hong Kong

Rise time Rise Azimuth (degrees) Set time Set Azimuth (degrees) Duration Max altitude (degrees)

No matching passes for this satellites